TimeEDT,TemperatureF,Dew PointF,Humidity,Sea Level PressureIn,VisibilityMPH,Wind Direction,Wind SpeedMPH,Gust SpeedMPH,PrecipitationIn,Events,Conditions,WindDirDegrees,DateUTC
12:53 AM,71.1,66.9,87,30.02,8.0,Calm,Calm,-,N/A,,Mostly Cloudy,0,2013-07-27 04:53:00
1:53 AM,71.1,68.0,90,30.01,7.0,Calm,Calm,-,N/A,,Mostly Cloudy,0,2013-07-27 05:53:00
2:53 AM,70.0,66.9,90,29.99,8.0,East,4.6,-,N/A,,Mostly Cloudy,100,2013-07-27 06:53:00
3:33 AM,69.8,66.2,88,30.03,7.0,East,3.5,-,N/A,,Mostly Cloudy,90,2013-07-27 07:33:00
3:53 AM,70.0,66.9,90,29.98,7.0,ESE,3.5,-,N/A,,Overcast,110,2013-07-27 07:53:00
4:53 AM,70.0,68.0,93,29.98,6.0,East,3.5,-,N/A,,Overcast,100,2013-07-27 08:53:00
5:06 AM,69.8,68.0,94,30.02,6.0,Calm,Calm,-,N/A,,Overcast,0,2013-07-27 09:06:00
5:53 AM,71.1,68.0,90,29.99,6.0,Calm,Calm,-,N/A,,Overcast,0,2013-07-27 09:53:00
6:48 AM,71.6,68.0,88,30.03,5.0,Calm,Calm,-,N/A,,Overcast,0,2013-07-27 10:48:00
6:53 AM,71.1,68.0,90,29.99,5.0,Calm,Calm,-,N/A,,Overcast,0,2013-07-27 10:53:00
7:06 AM,71.6,68.0,88,30.03,4.0,Calm,Calm,-,N/A,,Overcast,0,2013-07-27 11:06:00
7:25 AM,71.6,69.8,94,30.03,3.0,Calm,Calm,-,N/A,,Overcast,0,2013-07-27 11:25:00
7:39 AM,71.6,69.8,94,30.04,4.0,Calm,Calm,-,N/A,,Overcast,0,2013-07-27 11:39:00
7:46 AM,71.6,69.8,94,30.03,4.0,Calm,Calm,-,N/A,,Overcast,0,2013-07-27 11:46:00
7:53 AM,71.1,69.1,93,29.99,4.0,Calm,Calm,-,N/A,,Overcast,0,2013-07-27 11:53:00
8:53 AM,72.0,69.1,91,30.00,4.0,Calm,Calm,-,N/A,,Overcast,0,2013-07-27 12:53:00
9:18 AM,73.4,69.8,88,30.04,6.0,South,3.5,-,N/A,,Overcast,170,2013-07-27 13:18:00
9:29 AM,73.4,69.8,88,30.04,6.0,South,3.5,-,N/A,,Overcast,170,2013-07-27 13:29:00
9:53 AM,73.0,69.1,87,30.00,7.0,South,3.5,-,N/A,,Mostly Cloudy,170,2013-07-27 13:53:00
10:08 AM,73.4,69.8,88,30.04,8.0,Calm,Calm,-,N/A,,Scattered Clouds,0,2013-07-27 14:08:00
10:27 AM,73.4,69.8,88,30.04,8.0,SW,3.5,-,N/A,,Mostly Cloudy,220,2013-07-27 14:27:00
10:53 AM,75.0,70.0,84,30.00,8.0,WSW,4.6,-,N/A,,Overcast,240,2013-07-27 14:53:00
11:33 AM,75.2,69.8,83,30.04,9.0,SW,4.6,-,N/A,,Mostly Cloudy,230,2013-07-27 15:33:00
11:53 AM,77.0,69.1,76,29.99,10.0,WSW,5.8,-,N/A,,Scattered Clouds,240,2013-07-27 15:53:00
12:53 PM,78.1,69.1,74,29.98,9.0,SW,6.9,-,N/A,,Scattered Clouds,230,2013-07-27 16:53:00
1:53 PM,79.0,66.9,66,29.96,10.0,WSW,11.5,-,N/A,,Partly Cloudy,240,2013-07-27 17:53:00
2:53 PM,80.1,66.9,64,29.96,9.0,WSW,12.7,-,N/A,,Clear,240,2013-07-27 18:53:00
3:53 PM,78.1,66.0,66,29.94,10.0,West,8.1,-,N/A,,Clear,280,2013-07-27 19:53:00
4:53 PM,78.1,64.9,64,29.93,10.0,WSW,9.2,-,N/A,,Clear,240,2013-07-27 20:53:00
5:53 PM,77.0,64.0,64,29.92,10.0,West,8.1,-,N/A,,Clear,260,2013-07-27 21:53:00
6:53 PM,78.1,64.0,62,29.92,10.0,WSW,8.1,-,N/A,,Mostly Cloudy,250,2013-07-27 22:53:00
7:53 PM,77.0,64.9,66,29.93,10.0,WSW,4.6,-,N/A,,Scattered Clouds,240,2013-07-27 23:53:00
8:53 PM,73.0,64.9,76,29.94,10.0,Calm,Calm,-,N/A,,Clear,0,2013-07-28 00:53:00
9:53 PM,72.0,66.0,81,29.95,10.0,WSW,3.5,-,N/A,,Clear,250,2013-07-28 01:53:00
10:53 PM,72.0,64.9,78,29.96,10.0,Calm,Calm,-,N/A,,Clear,0,2013-07-28 02:53:00
11:53 PM,71.1,66.9,87,29.96,7.0,SW,3.5,-,N/A,,Clear,230,2013-07-28 03:53:00